Eugene, Missouri, United States (65032)
Lat: 38.35N, Lon: 92.4W
Wx Zone: MOZ048
Local Info
Past Weather Observations for Today

NOTE: This archive is for the closest National Weather Service station to Eugene. Information may differ from the station used for current weather conditions.

Click here for Long-term Archive

Time Weather Temperature Dewpoint Humidity Pressure Winds Precip Visibility
12:35
Clear
79°F / 26°C 63°F / 17°C 58% 30.06 in
(1018 mb)
SSW 5.8 mph
(SSW 9 kph)
- 10SM
12:15
Clear
77°F / 25°C 63°F / 17°C 61% 30.06 in
(1018 mb)
W 4.6 mph
(W 7 kph)
- 10SM
11:55
Clear
75°F / 24°C 63°F / 17°C 65% 30.06 in
(1018 mb)
Calm - 10SM
11:35
Clear
75°F / 24°C 63°F / 17°C 65% 30.06 in
(1018 mb)
Calm - 10SM
11:15
Clear
73°F / 23°C 63°F / 17°C 69% 30.09 in
(1019 mb)
SW 5.8 mph
(SW 9 kph)
- 10SM
10:55
Clear
73°F / 23°C 61°F / 16°C 65% 30.09 in
(1019 mb)
SW 4.6 mph
(SW 7 kph)
- 10SM
10:35
Clear
72°F / 22°C 61°F / 16°C 69% 30.09 in
(1019 mb)
Calm - 10SM
10:15
Clear
70°F / 21°C 61°F / 16°C 73% 30.09 in
(1019 mb)
Calm - 10SM
09:55
Clear
70°F / 21°C 61°F / 16°C 73% 30.09 in
(1019 mb)
SSW 5.8 mph
(SSW 9 kph)
- 10SM
09:35
Partly Cloudy
68°F / 20°C 61°F / 16°C 78% 30.09 in
(1019 mb)
SSW 6.9 mph
(SSW 11 kph)
- 10SM
09:15
Partly Cloudy
66°F / 19°C 61°F / 16°C 83% 30.09 in
(1019 mb)
W 5.8 mph
(W 9 kph)
- 10SM
08:55
Clear
64°F / 18°C 59°F / 15°C 83% 30.09 in
(1019 mb)
NW 4.6 mph
(NW 7 kph)
- 10SM
08:35
Clear
64°F / 18°C 59°F / 15°C 83% 30.09 in
(1019 mb)
SSW 5.8 mph
(SSW 9 kph)
- 10SM
08:15
Clear
63°F / 17°C 59°F / 15°C 88% 30.06 in
(1018 mb)
SSW 5.8 mph
(SSW 9 kph)
- 9SM
07:55
Clear
63°F / 17°C 57°F / 14°C 83% 30.06 in
(1018 mb)
W 4.6 mph
(W 7 kph)
- 8SM
07:35
Clear
61°F / 16°C 57°F / 14°C 88% 30.06 in
(1018 mb)
SSW 4.6 mph
(SSW 7 kph)
- 5SM
07:15
Clear
61°F / 16°C 57°F / 14°C 88% 30.06 in
(1018 mb)
SSW 3.5 mph
(SSW 6 kph)
- 6SM
06:55
Clear
57°F / 14°C 55°F / 13°C 94% 30.06 in
(1018 mb)
Calm - 3SM
06:35
Clear
57°F / 14°C 54°F / 12°C 88% 30.06 in
(1018 mb)
W 4.6 mph
(W 7 kph)
- 3SM
06:15
Clear
57°F / 14°C 54°F / 12°C 88% 30.04 in
(1017 mb)
Calm - 4SM
05:55
Clear
57°F / 14°C 54°F / 12°C 88% 30.04 in
(1017 mb)
SSW 3.5 mph
(SSW 6 kph)
- 3SM
05:35
Clear
57°F / 14°C 55°F / 13°C 94% 30.04 in
(1017 mb)
Calm - 7SM
05:15
Clear
59°F / 15°C 55°F / 13°C 88% 30.04 in
(1017 mb)
Calm - 9SM
04:55
Clear
57°F / 14°C 55°F / 13°C 94% 30.04 in
(1017 mb)
Calm - 5SM
04:35
Clear
61°F / 16°C 55°F / 13°C 83% 30.04 in
(1017 mb)
Calm - 9SM
04:15
Clear
61°F / 16°C 57°F / 14°C 88% 30.04 in
(1017 mb)
SSW 3.5 mph
(SSW 6 kph)
- 10SM
03:55
Partly Cloudy
61°F / 16°C 57°F / 14°C 88% 30.04 in
(1017 mb)
SSW 3.5 mph
(SSW 6 kph)
- 10SM
03:35
Mostly Cloudy
63°F / 17°C 57°F / 14°C 83% 30.04 in
(1017 mb)
SSW 3.5 mph
(SSW 6 kph)
- 10SM
03:15
Mostly Cloudy
63°F / 17°C 57°F / 14°C 83% 30.04 in
(1017 mb)
Calm - 10SM
02:55
Partly Cloudy
63°F / 17°C 57°F / 14°C 83% 30.04 in
(1017 mb)
SSW 3.5 mph
(SSW 6 kph)
- 10SM
02:35
Partly Cloudy
61°F / 16°C 55°F / 13°C 83% 30.04 in
(1017 mb)
SSW 4.6 mph
(SSW 7 kph)
- 10SM
02:15
Mostly Cloudy
61°F / 16°C 57°F / 14°C 88% 30.04 in
(1017 mb)
SSW 3.5 mph
(SSW 6 kph)
- 10SM
01:55
Partly Cloudy
59°F / 15°C 55°F / 13°C 88% 30.04 in
(1017 mb)
Calm - 10SM
01:35
Clear
59°F / 15°C 55°F / 13°C 88% 30.04 in
(1017 mb)
Calm - 10SM
01:15
Clear
59°F / 15°C 55°F / 13°C 88% 30.04 in
(1017 mb)
Calm - 10SM
00:55
Clear
59°F / 15°C 55°F / 13°C 88% 30.04 in
(1017 mb)
SW 3.5 mph
(SW 6 kph)
- 10SM
00:35
Clear
59°F / 15°C 54°F / 12°C 82% 30.04 in
(1017 mb)
SW 3.5 mph
(SW 6 kph)
- 10SM
00:15
Clear
61°F / 16°C 57°F / 14°C 88% 30.04 in
(1017 mb)
SW 5.8 mph
(SW 9 kph)
- 10SM
Time Weather Temperature Dewpoint Humidity Pressure Winds Precip Visibility


Weather for websites

WeatherForYou.com, LLC is not responsible for any damages or problems caused by this service. Current weather conditions are obtained from the closest station including government and personal stations which may have varying degrees of accuracy. Weather forecasts are derived from the NOAA NDFD. Like all things, this site belongs to Jesus Christ... He just trusts me to maintain it. If you have any questions or comments email webmaster@weatherforyou.com

Copyright © 2014, WeatherForYou.com LLC. All rights reserved.